Location: Bois de la Silve
(44.4667°N, 6.7833°E)
Time: 20:45:36
(UTC+00:00)

Cosmos 1908 Rocket - Pass Details

Date: 14 July 2020
Orbit: 605 x 633 km, 82.5° (Epoch: 14 August)

Event Time Altitude Azimuth Distance (km) Brightness Sun altitude
Exits shadow 03:05:55 10° 208° (SSW) 2,040 5.6 -8.8°
Reaches altitude 10° 03:06:00 10° 208° (SSW) 2,012 5.6 -8.8°
Maximum altitude 03:10:18 47° 283° (WNW) 846 4.0 -8.2°
Drops below altitude 10° 03:14:38 10° 357° (N) 2,022 6.8 -7.6°
Sets 03:16:57 0° 4° (N) 2,932 7.7 -7.3°
